Location: Fort Wayne
(41.1310°N, 85.1290°W)
Time: 08:41:15
(UTC-04:00)

Cosmos 1980 - Visible Passes

Search period start: 25 April 2018 00:00
Search period end: 05 May 2018 00:00
Orbit: 838 x 848 km, 71.0° (Epoch: 24 April)

Date Brightness Start Highest point End Pass type
(mag) Time Alt. Az. Time Alt. Az. Time Alt. Az.
25 Apr 6.4 05:34:52 10° N 05:39:19 23° NE 05:43:42 10° ESE visible
25 Apr 5.8 22:10:24 10° WSW 22:15:17 29° NW 22:20:13 10° N visible
26 Apr 6.4 05:20:21 10° N 05:24:43 22° NE 05:29:01 10° ESE visible
26 Apr 5.8 21:55:45 10° WSW 22:00:42 30° NW 22:05:42 10° N visible
27 Apr 6.4 05:05:51 10° N 05:10:07 21° NE 05:14:20 10° E visible
27 Apr 5.8 21:41:06 10° WSW 21:46:07 31° WNW 21:51:09 10° N visible
28 Apr 6.4 04:51:20 10° N 04:55:31 20° NE 04:59:38 10° E visible
28 Apr 5.7 21:26:28 10° WSW 21:31:31 33° WNW 21:36:38 10° N visible
29 Apr 6.4 04:36:50 10° N 04:40:55 20° NE 04:44:56 10° E visible
29 Apr 5.7 21:11:49 10° WSW 21:16:56 34° WNW 21:22:06 10° N visible
30 Apr 6.4 04:22:20 10° N 04:26:18 19° NE 04:30:15 10° E visible
30 Apr 3.7 06:05:19 10° NNW 06:10:58 71° WSW 06:16:34 10° SSE visible
30 Apr 5.7 20:57:11 10° WSW 21:02:21 35° WNW 21:07:33 10° N visible
01 May 6.5 04:07:51 10° N 04:11:42 18° NE 04:15:32 10° E visible
01 May 3.7 05:50:45 10° NNW 05:56:25 74° WSW 06:02:01 10° SSE visible
02 May 6.5 03:53:21 10° N 03:57:06 18° NE 04:00:49 10° E visible
02 May 3.6 05:36:11 10° NNW 05:41:51 78° WSW 05:47:28 10° SSE visible
03 May 6.5 03:38:52 10° N 03:42:30 17° NE 03:46:06 10° E visible
03 May 3.6 05:21:36 10° NNW 05:27:17 81° WSW 05:32:54 10° SSE visible
04 May 6.5 03:24:23 10° N 03:27:54 16° NE 03:31:22 10° E visible
04 May 3.6 05:07:03 10° NNW 05:12:44 84° WSW 05:18:21 10° SSE visible
